Location: Sternwarte_Laufen
(47.9344°N, 12.9346°E)
Time: 23:36:02
(UTC+01:00)

OTV 5 (USA 277) - Visible Passes

Search period start: 21 January 2018 00:00
Search period end: 31 January 2018 00:00
Orbit: 404 x 417 km, 43.0° (Epoch: 07 September)

Date Brightness Start Highest point End Pass type
(mag) Time Alt. Az. Time Alt. Az. Time Alt. Az.
23 Jan ? 19:17:30 10° SSW 19:18:11 13° SSW 19:18:11 13° SSW visible
24 Jan ? 18:27:06 10° S 18:29:04 15° SSE 18:29:40 14° SE visible
25 Jan ? 17:37:18 10° SSE 17:38:11 11° SSE 17:39:06 10° SE visible
25 Jan ? 19:11:54 10° SW 19:13:51 23° SSW 19:13:51 23° SSW visible
26 Jan ? 18:21:09 10° SW 18:23:54 23° SSE 18:25:15 18° SE visible
26 Jan ? 19:57:39 10° WSW 19:58:01 12° WSW 19:58:01 12° WSW visible
27 Jan ? 17:30:31 10° SSW 17:32:58 19° SSE 17:35:26 10° ESE visible
27 Jan ? 19:06:41 10° WSW 19:09:24 33° SSW 19:09:24 33° SSW visible
28 Jan ? 18:15:46 10° SW 18:18:49 31° S 18:20:46 17° ESE visible
28 Jan ? 19:52:42 10° WSW 19:53:32 16° WSW 19:53:32 16° WSW visible
29 Jan ? 19:01:39 10° WSW 19:04:46 34° S 19:04:55 34° S visible
30 Jan ? 18:10:40 10° WSW 18:13:47 35° S 18:16:20 14° ESE visible
30 Jan ? 19:47:54 10° WSW 19:49:06 17° WSW 19:49:06 17° WSW visible
